ROMMA est une association bénévole à but non lucratif. Votre soutien est indispensable : ADHERER à ROMMA ou FAIRE un DON

Crest - (26, Drôme)

Vallée de la Drôme (315 m)   Longitude: 5°2' E   Latitude: 44°44' N Station partenaire n°62
 

Détail journalier du     <<     >>

Température Precipitation Humidité Pression Vent Dir Rafale Dir. rafale Ensol.
Heure (°C) (mm) (%) (hPa) (km/h) (km/h) (min)
01:00 -1.508510222S10SE0
02:00 -1.208510213SE10SE0
03:00 -1.108410211SSE8SE0
04:00 0.207810203ENE13ENE0
05:00 -0.107610203SE8ESE0
06:00 0.407410193SE10SE0
07:00 0.907110197SE18ESE0
08:00 1.406710199ESE21ESE0
09:00 1.107010187SE19ESE0
10:00 2.706210178SE19ESE0
11:00 3.705810178SE18ESE0
12:00 3.905910168SE16ESE0
13:00 5.305610151ESE5ESE0
14:00 5.905610151SE6SE0
15:00 5.206410152SE8SE0
16:00 4.32.88510155E19ENE0
17:00 3.53.387101612ENE24E0
18:00 3.318810168ENE26ENE0
19:00 2.81.39010162ESE6E0
20:00 2.509210152SE8SE0
21:00 2.709310142SE6SE0
22:00 2.009310142SE8SE0
23:00 1.309410134ENE13ENE0
minuit 1.209510121ESE6E0

Graphique du 11-12-2019

 

Serveur OMMA